Tracking 30701 objects as of 14-Jun-2025
HD Live streaming from Space Station
objects crossing your sky now

STARLINK-5010

Track STARLINK-5010 now!
10-day predictions
STARLINK-5010 is classified as:


NORAD ID: 53930
Int'l Code: 2022-119AW
Perigee: 545.5 km
Apogee: 548.4 km
Inclination: 53.2 °
Period: 95.4 minutes
Semi major axis: 6917 km
RCS: Unknown
Launch date: September 24, 2022
Source: United States (US)
Launch site: AIR FORCE EASTERN TEST RANGE (AFETR)
Your satellite tracking list
Your tracking list is empty




NASA's NSSDC Master Catalog

Two Line Element Set (TLE):
1 53930U 22119AW  25165.44927073  .00004827  00000-0  32137-3 0  9990
2 53930  53.2178  68.0377 0002058  83.1419 276.9807 15.08814914151478
Source of the keplerian elements: AFSPC